BADBUCHAU Weather Reports


time (UTC)temp
F
wind
direction
speed
knots
gust
knots
rain 1hr
in
rain 24hr
in
rain mn
in
humidity
%
barometer
mb
20260504160210 70 294 3.5 0.0 0.00 0.00 0.00 42 1009.9
20260504150210 73 45 3.5 0.0 0.00 0.00 0.00 38 1009.8
20260504140209 73 57 6.1 0.0 0.00 0.00 0.00 38 1010.2
20260504130215 72 161 11.3 0.0 0.00 0.00 0.00 41 1010.8
20260504120210 69 17 7.0 0.0 0.00 0.00 0.00 44 1011.1
20260504110210 69 5 6.1 0.0 0.00 0.00 0.00 43 1011.5
20260504100212 69 9 8.7 0.0 0.00 0.00 0.00 40 1012.0
20260504080210 65 112 2.6 0.0 0.00 0.00 0.00 47 1013.0
20260504070211 59 265 0.0 0.0 0.00 0.00 0.00 62 1013.0
20260504060212 52 265 0.0 0.0 0.00 0.00 0.00 78 1013.2
20260504050210 47 228 0.0 0.0 0.00 0.00 0.00 83 1013.5
20260504043211 46 228 0.0 0.0 0.00 0.00 0.00 82 1013.3
20260504040211 49 228 0.0 0.0 0.00 0.00 0.00 76 1013.3
20260504033211 49 228 2.6 0.0 0.00 0.00 0.00 77 1013.7
20260504030212 49 228 0.0 0.0 0.00 0.00 0.00 77 1013.5
20260504023211 49 228 2.6 0.0 0.00 0.00 0.00 78 1013.6
20260504020212 50 140 0.0 0.0 0.00 0.00 0.00 75 1013.4
20260504013211 52 112 5.2 0.0 0.00 0.00 0.00 70 1013.4
20260504010211 53 171 0.0 0.0 0.00 0.00 0.00 69 1013.3
20260504003210 54 171 1.7 0.0 0.00 0.00 0.00 65 1013.6
20260504000208 55 171 4.3 0.0 0.00 0.00 0.00 61 1013.8
20260503233209 57 253 0.0 0.0 0.00 0.00 0.00 59 1013.8
20260503230209 57 253 2.6 0.0 0.00 0.00 0.00 55 1014.0
20260503223210 57 253 3.5 0.0 0.00 0.00 0.00 56 1014.1
20260503220212 58 253 2.6 0.0 0.00 0.00 0.00 53 1014.0
20260503213210 58 253 3.5 0.0 0.00 0.00 0.00 53 1013.7
20260503210211 58 250 4.3 0.0 0.00 0.00 0.00 53 1013.2
20260503203209 59 209 7.0 0.0 0.00 0.00 0.00 50 1013.2
20260503200211 61 263 9.6 0.0 0.00 0.00 0.00 46 1012.9
20260503193210 61 239 10.4 0.0 0.00 0.00 0.00 45 1012.7
20260503190210 63 254 11.3 0.0 0.00 0.00 0.00 43 1012.2
20260503183209 66 253 16.5 0.0 0.00 0.00 0.00 46 1011.7
20260503180210 68 321 7.8 0.0 0.00 0.00 0.00 46 1011.2
20260503173209 69 335 7.8 0.0 0.00 0.00 0.00 44 1011.0
20260503170211 71 252 8.7 0.0 0.00 0.00 0.00 42 1010.7